Regional Weather Roundup
Issued by NWS

Home | Current Version | Previous Version | Text Only | Print | Product List | Glossary Off
Versions: 1 2 3 4 5 6 7 8 9 10 11 12 13 14 15 16 17 18 19 20 21 22 23 24 25 26 27 28 29 30 31 32 33 34 35 36 37 38 39 40 41 42 43 44 45 46 47 48 49 50

000
ASUS43 KLSX 191059
RWRMO

WEATHER SUMMARY FOR MISSOURI
NATIONAL WEATHER SERVICE SPRINGFIELD MO
600 AM CDT SUN APR 19 2015

NOTE: "FAIR" INDICATES FEW OR NO CLOUDS BELOW 12,000 FEET WITH NO
       SIGNIFICANT WEATHER AND/OR OBSTRUCTIONS TO VISIBILITY.
       CURRENT SKY AND/OR WEATHER CONDITIONS ARE NOT AVAILABLE FOR
       CHILLICOTHE AND FARMINGTON.

MOZ001>031-035>038-043-044-053-054-191200-
...NORTHERN AND WESTERN MISSOURI...

CITY           SKY/WX    TMP DP  RH WIND       PRES   REMARKS
KANSAS CTY INT LGT RAIN  53  53 100 NE6       29.70F
KANSAS C DTWN  CLOUDY    56  52  86 N7        29.68F
LEE`S SUMMIT   MOCLDY    54  53  97 NW3       29.71F
ST JOSEPH      LGT RAIN  56  54  93 SW6       29.73F FOG
CHILLICOTHE      N/A     57  57 100 CALM      29.74F
KIRKSVILLE     PTCLDY    52  52 100 CALM      29.74S FOG

$$
MOZ066>068-077>081-088>096-101>105-191200-
...SOUTHWEST MISSOURI...

CITY           SKY/WX    TMP DP  RH WIND       PRES   REMARKS
SPRINGFIELD    MOCLDY    55  52  89 NW10      29.72S
JOPLIN         PTCLDY    51  49  92 SE3       29.73F

$$
MOZ032>034-039>042-045>050-055>058-069>072-191200-
...CENTRAL MISSOURI...

CITY           SKY/WX    TMP DP  RH WIND       PRES   REMARKS
COLUMBIA       MOCLDY    56  55  97 CALM      29.70F
JEFFERSON CITY CLOUDY    54  53  97 W5        29.70F
ROLLA          CLOUDY    58  55  90 SE9       29.71S
SEDALIA        CLOUDY    54  52  93 CALM      29.71F FOG
WHITEMAN AFB   MOCLDY    59  59 100 W8        29.70S
OSAGE BEACH    CLOUDY    55  54  94 CALM      29.70F

$$
MOZ051-052-059>065-191200-
...EAST CENTRAL MISSOURI...

CITY           SKY/WX    TMP DP  RH WIND       PRES   REMARKS
ST LOUIS INTL  CLOUDY    63  52  67 E6        29.71F
SPIRIT OF STL  CLOUDY    60  57  89 CALM      29.68F
ST CHARLES     MOCLDY    60  52  74 E6        29.70F

$$
MOZ072>076-082>087-097>100-106>115-191200-
...SOUTH CENTRAL AND SOUTHEAST MISSOURI...

CITY           SKY/WX    TMP DP  RH WIND       PRES   REMARKS
CAPE GIRARDEAU HVY RAIN  63  63 100 E7        29.67F FOG
FARMINGTON     CLOUDY    61  59  94 NE5       29.73F
POPLAR BLUFF   CLOUDY    64  62  93 CALM      29.65F
WEST PLAINS    LGT RAIN  59  57  93 N3        29.70F

$$



USA.gov is the U.S. government's official web portal to all federal, state and local government web resources and services.